XW-3 (CAS-9)

Last updated on Wed Sep 09 2026 00:03:15 GMT+0000 (Coordinated Universal Time)

1 50466U 21131B 26251.63335097 .00000398 00000+0 13642-3 0 9999 2 50466 98.4972 343.5692 0003669 191.1618 168.9490 14.41421040247130
UTC large
Height (km)
Speed (km/s)
/
Latitude / Longitude
Inclination (degrees)
Orbital Period (minutes)
Azimuth
Elevation
Range (km)
Doppler Factor

Next 0 passes for location: London (51.5072 / 0.1276)

No passes found over London.
XW-3 (CAS-9)